Location: Anjeux
(47.8815°N, 6.2076°E)
Time: 19:11:51
(UTC+00:00)

CAS-4B - Pass Details

Date: 27 November 2021
Orbit: 529 x 538 km, 43.0° (Epoch: 22 January)

Event Time Altitude Azimuth Distance (km) Brightness Sun altitude
Exits shadow 04:25:43 12° 177° (S) 1,658 ? -25.0°
Drops below altitude 10° 04:26:12 10° 171° (S) 1,767 ? -24.9°
Sets 04:29:07 0° 149° (SSE) 2,654 ? -24.4°
